User: anonymous   Login
Location: Oshawa
(43.9000°N, 78.8670°W)
Time: 09:59:47
(UTC-04:00)
Language:

Cosmos 1953 Rocket - Orbit

View from above orbital plane
View from above orbital plane
View from above satellite
View from above satellite

Ground track
Ground track

The orbit data is extracted from the following two-line orbital elements,

1 19211U 88050B   16269.04200255  .00000122  00000-0  12057-4 0  9991
2 19211  82.5234  90.3948 0020356 271.3592 207.9120 14.82919238527493
Epoch (UTC): 25 September 2016 01:00:29
Eccentricity: 0.0020356
inclination: 82.5234°
perigee height: 606 km
apogee height: 634 km
right ascension of ascending node: 90.3948°
argument of perigee: 271.3592°
revolutions per day: 14.82919238
mean anomaly at epoch: 207.9120°
orbit number at epoch: 52749

The dashed part of the orbit path shows where the satellite is in the earth's shadow,  

DLR